Time,TemperatureF,DewpointF,PressureIn,WindDirection,WindDirectionDegrees,WindSpeedMPH,WindSpeedGustMPH,Humidity,HourlyPrecipIn,Conditions,Clouds,dailyrainin,SoftwareType,DateUTC
2013-02-11 00:04:00,37.4,24.0,29.97,ESE,117,1.0,2.0,58,0.00,,,0.00,weatherlink.com 1.10,2013-02-11 07:04:00,
2013-02-11 00:19:00,36.4,24.0,29.96,SSE,158,1.0,3.0,61,0.00,,,0.00,weatherlink.com 1.10,2013-02-11 07:19:00,
2013-02-11 00:34:00,35.3,24.0,29.97,East,90,1.0,5.0,64,0.00,,,0.00,weatherlink.com 1.10,2013-02-11 07:34:00,
2013-02-11 00:49:00,34.9,25.0,29.96,ESE,113,2.0,3.0,66,0.00,,,0.00,weatherlink.com 1.10,2013-02-11 07:49:00,
2013-02-11 01:04:00,34.8,25.0,29.97,East,84,2.0,5.0,67,0.00,,,0.00,weatherlink.com 1.10,2013-02-11 08:04:00,
2013-02-11 01:19:00,34.8,25.0,29.97,East,86,3.0,4.0,67,0.00,,,0.00,weatherlink.com 1.10,2013-02-11 08:19:00,
2013-02-11 01:34:00,34.8,24.0,29.97,East,84,3.0,5.0,66,0.00,,,0.00,weatherlink.com 1.10,2013-02-11 08:34:00,
2013-02-11 01:49:00,34.6,23.0,29.97,SSE,158,3.0,5.0,64,0.00,,,0.00,weatherlink.com 1.10,2013-02-11 08:49:00,
2013-02-11 02:04:00,34.1,23.0,29.96,SE,129,1.0,5.0,63,0.00,,,0.00,weatherlink.com 1.10,2013-02-11 09:04:00,
2013-02-11 02:19:00,33.8,23.0,29.96,ENE,77,2.0,5.0,64,0.00,,,0.00,weatherlink.com 1.10,2013-02-11 09:19:00,
2013-02-11 02:34:00,33.6,23.0,29.96,East,85,1.0,5.0,64,0.00,,,0.00,weatherlink.com 1.10,2013-02-11 09:34:00,
2013-02-11 02:49:00,33.6,22.0,29.96,SE,138,3.0,6.0,63,0.00,,,0.00,weatherlink.com 1.10,2013-02-11 09:49:00,
2013-02-11 03:04:00,33.2,22.0,29.96,SSE,166,4.0,6.0,64,0.00,,,0.00,weatherlink.com 1.10,2013-02-11 10:04:00,
2013-02-11 03:19:00,32.7,22.0,29.95,South,177,1.0,6.0,65,0.00,,,0.00,weatherlink.com 1.10,2013-02-11 10:19:00,
2013-02-11 03:34:00,32.4,23.0,29.95,East,90,1.0,4.0,67,0.00,,,0.00,weatherlink.com 1.10,2013-02-11 10:34:00,
2013-02-11 03:49:00,33.0,23.0,29.95,ESE,108,3.0,5.0,66,0.00,,,0.00,weatherlink.com 1.10,2013-02-11 10:49:00,
2013-02-11 04:04:00,32.9,22.0,29.95,ESE,111,5.0,5.0,65,0.00,,,0.00,weatherlink.com 1.10,2013-02-11 11:04:00,
2013-02-11 04:19:00,32.8,22.0,29.95,SE,134,1.0,5.0,65,0.00,,,0.00,weatherlink.com 1.10,2013-02-11 11:19:00,
2013-02-11 04:34:00,32.2,22.0,29.94,East,82,2.0,3.0,67,0.00,,,0.00,weatherlink.com 1.10,2013-02-11 11:34:00,
2013-02-11 04:50:00,32.0,22.0,29.94,SE,138,3.0,5.0,67,0.00,,,0.00,weatherlink.com 1.10,2013-02-11 11:50:00,
2013-02-11 05:05:00,32.0,22.0,29.95,ESE,115,2.0,4.0,67,0.00,,,0.00,weatherlink.com 1.10,2013-02-11 12:05:00,
2013-02-11 05:20:00,32.1,22.0,29.95,ESE,119,4.0,5.0,67,0.00,,,0.00,weatherlink.com 1.10,2013-02-11 12:20:00,
2013-02-11 05:35:00,32.2,22.0,29.95,ESE,108,2.0,4.0,67,0.00,,,0.00,weatherlink.com 1.10,2013-02-11 12:35:00,
2013-02-11 05:50:00,31.7,22.0,29.96,ESE,103,2.0,4.0,68,0.00,,,0.00,weatherlink.com 1.10,2013-02-11 12:50:00,
2013-02-11 06:05:00,31.0,22.0,29.96,SSE,150,2.0,5.0,68,0.00,,,0.00,weatherlink.com 1.10,2013-02-11 13:05:00,
2013-02-11 06:20:00,30.8,22.0,29.96,ESE,110,2.0,3.0,69,0.00,,,0.00,weatherlink.com 1.10,2013-02-11 13:20:00,
2013-02-11 06:35:00,30.7,22.0,29.97,SSE,158,1.0,5.0,69,0.00,,,0.00,weatherlink.com 1.10,2013-02-11 13:35:00,
2013-02-11 06:50:00,30.9,22.0,29.97,SE,136,2.0,4.0,69,0.00,,,0.00,weatherlink.com 1.10,2013-02-11 13:50:00,
2013-02-11 07:05:00,31.1,22.0,29.98,ESE,113,1.0,3.0,69,0.00,,,0.00,weatherlink.com 1.10,2013-02-11 14:05:00,
2013-02-11 07:20:00,32.1,22.0,29.98,SSE,153,2.0,3.0,66,0.00,,,0.00,weatherlink.com 1.10,2013-02-11 14:20:00,
2013-02-11 07:35:00,33.7,22.0,29.99,SE,132,3.0,4.0,63,0.00,,,0.00,weatherlink.com 1.10,2013-02-11 14:35:00,
2013-02-11 07:50:00,34.8,22.0,29.99,SE,141,2.0,6.0,61,0.00,,,0.00,weatherlink.com 1.10,2013-02-11 14:50:00,
2013-02-11 08:05:00,36.1,23.0,30.00,SE,136,1.0,4.0,60,0.00,,,0.00,weatherlink.com 1.10,2013-02-11 15:05:00,
2013-02-11 08:20:00,38.9,23.0,30.00,SSE,147,2.0,4.0,54,0.00,,,0.00,weatherlink.com 1.10,2013-02-11 15:20:00,
2013-02-11 08:35:00,41.2,23.0,30.01,SE,136,1.0,5.0,49,0.00,,,0.00,weatherlink.com 1.10,2013-02-11 15:35:00,
2013-02-11 08:50:00,43.1,23.0,30.01,SE,145,5.0,5.0,45,0.00,,,0.00,weatherlink.com 1.10,2013-02-11 15:50:00,
2013-02-11 09:05:00,44.6,24.0,30.01,SSE,166,3.0,5.0,44,0.00,,,0.00,weatherlink.com 1.10,2013-02-11 16:05:00,
2013-02-11 09:20:00,46.6,24.0,30.02,South,181,0.0,5.0,42,0.00,,,0.00,weatherlink.com 1.10,2013-02-11 16:20:00,
2013-02-11 09:50:00,47.9,26.0,30.02,WSW,250,1.0,6.0,42,0.00,,,0.00,weatherlink.com 1.10,2013-02-11 16:50:00,
2013-02-11 10:05:00,48.5,27.0,30.02,SSW,205,4.0,7.0,43,0.00,,,0.00,weatherlink.com 1.10,2013-02-11 17:05:00,
2013-02-11 10:20:00,48.4,27.0,30.02,WSW,239,6.0,7.0,43,0.00,,,0.00,weatherlink.com 1.10,2013-02-11 17:20:00,
2013-02-11 10:35:00,48.9,27.0,30.02,SW,229,1.0,9.0,42,0.00,,,0.00,weatherlink.com 1.10,2013-02-11 17:35:00,
2013-02-11 10:50:00,49.3,26.0,30.02,SW,235,2.0,7.0,41,0.00,,,0.00,weatherlink.com 1.10,2013-02-11 17:50:00,
2013-02-11 11:06:00,49.2,26.0,30.02,WSW,253,3.0,8.0,41,0.00,,,0.00,weatherlink.com 1.10,2013-02-11 18:06:00,
2013-02-11 11:21:00,49.3,26.0,30.02,SW,219,1.0,8.0,41,0.00,,,0.00,weatherlink.com 1.10,2013-02-11 18:21:00,
2013-02-11 11:36:00,49.5,27.0,30.02,NW,304,4.0,9.0,42,0.00,,,0.00,weatherlink.com 1.10,2013-02-11 18:36:00,
2013-02-11 11:51:00,50.1,27.0,30.01,WNW,300,3.0,10.0,41,0.00,,,0.00,weatherlink.com 1.10,2013-02-11 18:51:00,
2013-02-11 12:06:00,51.0,27.0,30.01,SSW,208,3.0,8.0,40,0.00,,,0.00,weatherlink.com 1.10,2013-02-11 19:06:00,
2013-02-11 12:21:00,50.5,26.0,30.00,SW,224,8.0,12.0,39,0.00,,,0.00,weatherlink.com 1.10,2013-02-11 19:21:00,
2013-02-11 12:36:00,49.6,27.0,30.00,SSW,208,7.0,15.0,41,0.00,,,0.00,weatherlink.com 1.10,2013-02-11 19:36:00,
2013-02-11 12:51:00,47.9,28.0,29.99,WSW,252,9.0,14.0,47,0.00,,,0.00,weatherlink.com 1.10,2013-02-11 19:51:00,
2013-02-11 13:06:00,47.6,30.0,29.99,SW,236,3.0,11.0,51,0.00,,,0.00,weatherlink.com 1.10,2013-02-11 20:06:00,
2013-02-11 13:21:00,47.4,29.0,29.98,SW,219,4.0,13.0,49,0.00,,,0.00,weatherlink.com 1.10,2013-02-11 20:21:00,
2013-02-11 13:36:00,45.7,33.0,29.99,NNE,26,10.0,14.0,62,0.00,,,0.00,weatherlink.com 1.10,2013-02-11 20:36:00,
2013-02-11 13:51:00,43.2,34.0,29.99,NW,321,10.0,15.0,70,0.00,,,0.00,weatherlink.com 1.10,2013-02-11 20:51:00,
2013-02-11 14:06:00,41.2,35.0,30.00,NW,312,10.0,18.0,77,0.00,,,0.00,weatherlink.com 1.10,2013-02-11 21:06:00,
2013-02-11 14:21:00,39.2,34.0,30.01,NW,308,12.0,17.0,82,0.01,,,0.01,weatherlink.com 1.10,2013-02-11 21:21:00,
2013-02-11 14:36:00,37.4,34.0,30.02,NW,311,7.0,18.0,87,0.04,,,0.04,weatherlink.com 1.10,2013-02-11 21:36:00,